User: anonymous   Login
Location: Montr�al
(45.5000°N, 73.5830°W)
Time: 04:47:25
(UTC-04:00)
Language:

Cosmos 2369 - Orbit

View from above orbital plane
View from above orbital plane
View from above satellite
View from above satellite

Ground track
Ground track

The orbit data is extracted from the following two-line orbital elements,

1 26069U 00006A   15113.70844262 -.00000203  00000-0 -82771-4 0  9999
2 26069 070.9962 204.4767 0012649 327.5264 185.2969 14.13289563785146
Epoch (UTC): 23 April 2015 17:00:09
Eccentricity: 0.0012649
inclination: 70.9962°
perigee height: 839 km
apogee height: 857 km
right ascension of ascending node: 204.4767°
argument of perigee: 327.5264°
revolutions per day: 14.13289563
mean anomaly at epoch: 185.2969°
orbit number at epoch: 78514

The dashed part of the orbit path shows where the satellite is in the earth's shadow,  

DLR